www.pogodaiklimat.ru

Погода и климат >> Архив погоды >> Россия >> Якутия >> Усть-Оленек


ПОГОДА на Усть-Оленеке

  • Прогноз погоды на Усть-Оленеке
  • Монитор погоды на Усть-Оленеке

АРХИВ ПОГОДЫ на Усть-Оленеке

Время (UTC), дата Ветер
(напр.,м/с)
 
Видим.   Явления Облачность Т
(С)
Тd
(С)
f
(%)
Тe
(С)
Тes
(С)
Комфортность P
(гПа)
Po
(гПа)
Тmin
(С)
Tmax
(С)
R
(мм)
R24
(мм)
S
(см)
00 15.09 В 4 50 км 10/10 300 м
[Sc]
+2.6 -0.4 81 -2 -2 1008.6 1006.8 +2.4
03 15.09 СВ 3 50 км 10/10 300 м
[Sc]
+3.2 +0.3 81 -1 -1 1009.1 1007.3
06 15.09 СВ 4 50 км 10/10 300 м
[Sc]
+4.0 +1.7 85 -0 -0 1009.5 1007.7
09 15.09 В 5 50 км 10/10 300 м
[Sc]
+3.1 +0.7 84 -2 -2 1010.5 1008.7
12 15.09 В 4 10 км слаб. дождь 10/10 300 м
[Sc]
+2.5 +0.9 89 -2 -2 1011.3 1009.4 +4.2 2
15 15.09 В 4 10 км слаб. дождь 10/10 300 м
[Sc]
+2.6 +1.0 89 -2 -2 1011.9 1010.0
18 15.09 В 3 10 км слаб. дождь 10/10 300 м
[Sc]
+2.4 +1.1 91 -2 -2 1012.5 1010.6
21 15.09 В 2 20 км {дождь} 10/10 300 м
[St]
+2.0 +0.9 92 -1 -1 1012.9 1011.0
00 16.09 В 2 20 км {дождь} 10/10 300 м
[St]
+2.8 +2.0 94 -1 -1 1013.6 1011.7 +1.8 3
03 16.09 СВ 2 50 км 10/10 300 м
[St]
+2.9 +1.9 93 -0 -0 1013.5 1011.7
06 16.09 СВ 3 50 км 10/10 300 м
[St]
+3.3 +2.3 93 -1 -1 1013.1 1011.3
09 16.09 С 3 50 км 10/10 300 м
[St]
+3.9 +2.7 92 0 0 1013.5 1011.7
12 16.09 С 2 20 км 10/10 300 м
[St]
+3.2 +2.3 94 0 0 1013.2 1011.4 +4.0
15 16.09 С 2 20 км 10/10 300 м
[St]
+3.1 +2.3 94 -0 -0 1010.0 1008.2
21 16.09 Ю 2 50 км 10/10 300 м
[St]
+2.2 +1.4 94 -1 -1 1012.5 1010.6
00 17.09 ЮЗ 2 50 км 10/6 300 м
[Sc Ci fib]
+1.9 +0.8 92 -2 -1 1013.1 1011.2 +1.9
03 17.09 З 3 50 км 10/3 300 м
[St Ac trans Ci fib]
+3.9 +2.9 93 0 +1 1014.7 1012.9
06 17.09 З 2 50 км 10/3 300 м
[St Ac trans Ci fib]
+4.7 +2.2 84 +2 +3 1016.9 1015.1
09 17.09 З 2 50 км 10/3 300 м
[Cu med, cong Ci fib]
+4.8 +1.5 79 +2 +2 1018.9 1017.1
12 17.09 С 2 20 км 4/3 600 м
[Sc Ci fib]
+2.4 +0.3 86 -1 -1 1020.4 1018.5 +5.4
15 17.09 С 1 20 км 10/8 300 м
[Sc Ci fib]
+1.7 0.0 88 -0 -0 1021.2 1019.3
18 17.09 С 1 20 км 10/4 300 м
[Sc Ci fib]
+0.3 -0.8 92 -2 -2 1022.0 1020.1
21 17.09 СВ 2 20 км 10/3 200 м
[St Ci fib]
+0.2 -0.6 94 -4 -4 1022.2 1020.3
00 18.09 штиль 0 50 км 10/3 200 м
[St Ci fib]
+0.5 -0.3 94 -1 -0 1022.4 1020.5 -0.1
03 18.09 В 3 4000 м дымка 10/3 200 м
[St Ci fib]
+2.5 +1.2 91 -2 -1 1022.3 1020.4
06 18.09 В 3 4000 м дымка 10/3 300 м
[St Ci fib]
+1.7 +0.3 90 -3 -2 1021.6 1019.7
09 18.09 В 4 4000 м дымка 10/10 300 м
[St]
+1.2 +0.1 92 -4 -4 1020.8 1018.9
12 18.09 В 3 20 км 10/10 300 м
[St]
+1.2 +0.4 94 -3 -3 1020.2 1018.3 +2.8
15 18.09 В 2 4000 м слаб. морось 10/10 300 м
[St]
+1.6 +0.5 92 -2 -2 1018.8 1016.9
18 18.09 В 2 10 км слаб. морось 10/10 300 м
[St]
+2.6 +1.6 93 -1 -1 1017.7 1015.8
21 18.09 В 2 20 км {морось} 10/10 300 м
[St]
+3.1 +1.3 88 0 0 1016.7 1014.9
00 19.09 ЮВ 3 4000 м слаб. морось 10/10 300 м
[St]
+3.3 +2.3 93 -1 -1 1016.2 1014.4 +0.8 0.1
03 19.09 ЮВ 4 50 км {морось} 10/10 300 м
[St]
+3.9 +1.1 82 -1 -1 1015.7 1013.9
06 19.09 ЮВ 3 50 км {морось} 10/10 300 м
[St]
+4.2 +1.4 82 +1 +1 1015.4 1013.6
09 19.09 Ю 3 50 км 10/10 300 м
[Sc]
+4.5 +1.7 82 +1 +1 1015.4 1013.6
12 19.09 ЮВ 3 20 км 10/10 300 м
[Sc]
+4.3 +0.7 77 +1 +1 1015.5 1013.7 +4.7 0.0
15 19.09 ЮВ 3 20 км 10/10 300 м
[Sc]
+3.7 +1.1 83 -0 -0 1015.2 1013.4
18 19.09 Ю 2 50 км 10/10 300 м
[Sc]
+3.3 +1.5 88 0 0 1014.4 1012.6
21 19.09 ЮВ 2 20 км 10/10 300 м
[Sc]
+3.1 +1.3 88 0 0 1013.3 1011.5
00 20.09 Ю 3 50 км 10/10 300 м
[Sc]
+3.3 +2.0 91 -1 -1 1012.8 1011.0 +2.8
03 20.09 Ю 3 50 км 10/10 300 м
[Sc]
+3.9 +1.6 85 0 0 1012.1 1010.3
06 20.09 Ю 4 50 км 10/10 300 м
[Sc]
+5.1 +1.3 76 +1 +1 1011.4 1009.6
09 20.09 Ю 5 50 км 10/10 300 м
[Sc]
+4.4 -0.4 71 -0 -0 1011.8 1010.0
12 20.09 Ю 5 20 км 10/10 300 м
[Sc]
+3.7 0.0 77 -1 -1 1012.7 1010.9 +5.1
15 20.09 Ю 5 20 км 10/10 300 м
[Sc]
+2.3 -0.7 81 -3 -3 1012.7 1010.9
18 20.09 Ю 5 20 км 10/10 300 м
[Sc]
+2.3 -0.4 82 -3 -3 1012.0 1010.2
21 20.09 ЮВ 5 20 км 10/8 600 м
[Sc Ci fib]
+2.5 -0.5 81 -3 -3 1011.4 1009.6
00 21.09 ЮВ 6 50 км 10/3 600 м
[Sc Ac trans Ci fib]
+1.1 -3.1 74 -5 -5 1010.6 1008.7 +0.8
03 21.09 ЮВ 8-10
{11}
50 км 10/6 600 м
[Sc Ac trans Ci fib]
+3.0 -1.8 71 -3 -3 1007.8 1006.0
06 21.09 Ю 8-10
{12}
50 км 10/3 300 м
[Sc Ci sp]
+5.1 -3.1 55 -0 -0 1005.2 1003.4
09 21.09 Ю 9-11
{13}
50 км 10/0
[Ci sp]
+5.1 -2.1 60 -1 -1 1003.0 1001.2
12 21.09 Ю 9-12
{13}
20 км 10/0
[Ac trans Ci sp]
+3.9 -2.6 63 -2 -2 1001.2 999.4 +5.7
15 21.09 Ю 9-13
{14}
20 км 10/0
[Ac trans Ci sp]
+3.3 -2.7 65 -3 -3 998.1 996.3
18 21.09 Ю 8-12
{14}
20 км 10/0
[Ac As]
+2.3 -1.7 75 -4 -4 996.4 994.6
21 21.09 Ю 8-13
{14}
20 км в посл. час морось {дождь} 10/6
[Sc Ac As]
+1.9 0.0 87 -5 -5 995.5 993.7

 

Местоположение метеостанции Усть-Оленек (Якутия, Россия): широта 73.00 долгота 119.80 высота над уровнем моря 15 м.

В архиве по умолчанию представлена погода на Усть-Оленеке за последнюю неделю. Архивные данные за месяц целиком и за предыдущие месяцы, начиная с января 2011 года, Вы можете получить, выбрав интересующий диапазон дат из раскрывающегося списка и нажав кнопку "Ввод!".


*Определитесь, кто Вы:
робот инопланетянин человек

Внимание! Время в таблицах - всемирное. Для получения местного времени необходимо прибавить поправку, которая равна 9 ч.

Смотрите также архив погоды в соседних городах и на ближайших метеорологических станциях:

Погода в Тюмяти (Якутия, Россия) (173 км)
Погода в Анабаре (Якутия, Россия) (205 км)
Погода на Столб Острове (Якутия, Россия) (225 км)
Погода в Саскылахе (Якутия, Россия) (225 км)
Погода на Острове Преображения (Якутия, Россия) (282 км)
Погода на Мысе Быков (Якутия, Россия) (330 км)
Погода в Тикси (Якутия, Россия) (346 км)
Погода в Кюсюре (Якутия, Россия) (368 км)
Погода в Джалинде (Якутия, Россия) (380 км)
Погода в Сухане (Якутия, Россия) (490 км)

Пояснения к столбцам:

Ветер - указаны скорость ветра в м/с - средняя за 10 мин, порывы в срок и между сроками (в фигурных скобках) и направление, откуда дует ветер: С - северный, СВ - северо-восточный, В - восточный, ЮВ - юго-восточный, Ю - южный, ЮЗ - юго-западный, З - западный, СЗ - северо-западный.
Видимость - горизонтальная дальность видимости в метрах или километрах. При видимости от 1 до 10 км при отсутствии осадков обычно наблюдается дымка, при ухудшении видимости до 1 км и менее - туман. В сухую погоду видимость может ухудшаться дымом, пылью или мглою.
Явления - указаны атмосферные явления, наблюдавшиеся в срок или в последний час перед сроком; фигурными скобками обозначены явления, наблюдавшиеся между сроками (за 1-3 часа до срока); квадратными скобками обозначены град или гололедные отложения с указанием их диаметра в мм.
Облачность - указаны через наклонную черту общая и нижняя облачность в баллах и высота нижней границы облаков в метрах; квадратными скобками обозначены формы облаков: Ci - перистые, Cs - перисто-слоистые, Cc - перисто-кучевые, Ac - высококучевые, As - высокослоистые, Sc - слоисто-кучевые, Ns - слоисто-дождевые, Cu - кучевые, Cb - кучево-дождевые. Подробнее классификацию облаков см. в Атласе облаков (PDF).
T - Температура воздуха - температура, измеренная на высоте 2 м над землей.
Td - Температура точки росы - температура, при понижении до которой содержащийся в воздухе водяной пар достигнет насыщения.
f - Относительная влажность воздуха - влажноcть воздуха, измеренная на высоте 2 м над землей.
Te - Эффективная температура - температура, которую ощущает одетый по сезону человек в тени. Характеристика душности погоды. При расчете учитывается влияние влажности воздуха и скорости ветра на теплоощущения человека.
Tes - Эффективная температура на солнце - температура, которую ощущает человек, с поправкой на солнечный нагрев. Характеристика знойности погоды. Зависит от высоты солнца над горизонтом, облачности и скорости ветра. Ночью, в пасмурную погоду, а также при ветре 12 м/с и более поправка равна нулю.
P - Атмосферное давление - приведенное к уровню моря атмосферное давление.
Po - Атмосферное давление - измеренное на уровне метеостанции атмосферное давление.
Tmin - Минимальная температура - минимум температуры воздуха на высоте 2 м над землей.
Tmax - Максимальная температура - максимум температуры воздуха на высоте 2 м над землей.
R - Количество осадков - Количество выпавших осадков за период времени, мм. При наведении курсора мыши на число - период времени, за который выпало указанное количество осадков.
R24 - Количество осадков - Количество выпавших осадков за 24 часа, мм.
S - Снежный покров - Высота снежного покрова, см. При наведении курсора мыши на число - состояние снежного покрова и степень покрытия местности в баллах.